Find STARLINK-37510

NORAD ID: 799500959 Int'l Des: 2026-132N Constellation: starlink operational

現在のビュー

3D地球を読み込み中...

About STARLINK-37510

STARLINK-37510 (NORAD 799500959) is a starlink constellation satellite launched Jun 8, 2026

STARLINK-37510について

説明を読み込み中...

次回通過

Passes for default location (London). Set your location on the main map for personalized predictions.

高度履歴

Loading altitude history...

軌道要素

1 99999C 2026132N 26163.60951389 .00729590 00000-0 840650-4 0 1632
2 99999 53.1637 346.9034 0008649 278.4775 224.8405 16.07769180 19
Epoch: Jun 12, 2026 • Age: 9 hours